This is the latest recevied weather packets stored in our database for station/object OK0EK-11. If no packets are shown the sender has not sent any weather packets the latest 10 day(s).
| Time | Temp. | Humidity | Pressure | Rain* | Wind** | Luminosity | Snow |
|---|---|---|---|---|---|---|---|
| 1778196551 | 7.22° C | 99% | 1016.5 hPa | - | - | - | - |
| 1778195951 | 7.22° C | 99% | 1016.6 hPa | - | - | - | - |
| 1778195351 | 7.22° C | 99% | 1016.6 hPa | - | - | - | - |
| 1778194752 | 7.22° C | 98% | 1016.6 hPa | - | - | - | - |
| 1778194152 | 7.22° C | 99% | 1016.6 hPa | - | - | - | - |
| 1778193553 | 7.22° C | 98% | 1016.6 hPa | - | - | - | - |
| 1778192954 | 7.22° C | 98% | 1016.5 hPa | - | - | - | - |
| 1778192355 | 7.78° C | 98% | 1016.5 hPa | - | - | - | - |
| 1778191755 | 7.78° C | 97% | 1016.7 hPa | - | - | - | - |
| 1778191156 | 7.78° C | 97% | 1016.6 hPa | - | - | - | - |
| 1778190557 | 7.78° C | 96% | 1016.6 hPa | - | - | - | - |
| 1778189958 | 8.33° C | 96% | 1016.6 hPa | - | - | - | - |
| 1778189359 | 8.33° C | 95% | 1016.6 hPa | - | - | - | - |
| 1778188759 | 8.33° C | 93% | 1016.6 hPa | - | - | - | - |
| 1778188161 | 8.33° C | 89% | 1016.5 hPa | - | - | - | - |
| 1778187561 | 8.89° C | 85% | 1016.6 hPa | - | - | - | - |
| 1778186962 | 8.89° C | 83% | 1016.7 hPa | - | - | - | - |
| 1778186363 | 9.44° C | 81% | 1016.6 hPa | - | - | - | - |
| 1778185763 | 9.44° C | 79% | 1016.6 hPa | - | - | - | - |
| 1778185165 | 10° C | 78% | 1016.5 hPa | - | - | - | - |
| 1778184566 | 10° C | 79% | 1016.5 hPa | - | - | - | - |
| 1778183966 | 10° C | 78% | 1016.3 hPa | - | - | - | - |
| 1778183366 | 10.56° C | 75% | 1016.1 hPa | - | - | - | - |
| 1778182767 | 11.11° C | 73% | 1016 hPa | - | - | - | - |
| 1778182167 | 11.11° C | 72% | 1016.1 hPa | - | - | - | - |
* Rain since midnight (hover to see other rain measurements)
** Current wind speed in m/s (hover to see current wind gust speed)